Wind_Speed
8 7 7 6 5 5 6 6 7 8 7 8 8 9 9 9 9 9 10 9 9 10 10 10 10 10 10 10 10 9 8 8 8 7 7 7 7 6 6 6 5 5 5 5 5 4 4 4 4
8 7 6 5 4 4 6 7 8 8 8 8 9 9 9 8 8 9 9 9 9 9 10 10 10 10 10 10 10 9 9 8 8 7 7 7 7 7 6 6 6 6 6 5 5 5 5 5 6
8 7 6 5 5 5 6 6 7 7 8 8 9 9 9 9 7 8 9 9 9 9 9 9 10 10 9 9 10 9 9 9 8 8 7 7 7 7 7 6 6 6 6 6 6 5 5 6 6
7 7 6 4 4 5 6 7 7 8 8 8 8 9 9 8 8 8 9 9 9 9 9 10 10 9 9 9 9 9 9 9 9 8 8 8 7 7 7 7 6 6 6 6 6 5 4 5 6
7 6 6 4 3 3 5 6 8 10 9 9 9 9 9 8 8 9 10 10 10 9 10 10 10 10 9 9 9 9 9 9 9 9 8 8 7 8 8 7 6 6 5 5 5 5 3 2 4
7 7 4 4 2 1 3 6 8 10 10 10 10 10 9 9 9 9 10 10 9 9 10 10 10 10 10 9 9 9 9 9 9 9 9 8 7 8 8 7 6 6 5 5 4 4 3 4 5
7 6 4 3 2 1 2 5 8 10 10 10 10 9 9 9 9 9 9 9 9 9 10 10 10 10 10 10 10 9 9 9 9 9 9 9 8 8 8 7 7 6 6 5 5 4 4 5 5
8 7 6 5 2 1 3 5 6 9 9 9 10 9 9 10 9 9 9 9 9 10 10 10 10 10 10 9 10 10 10 10 10 10 10 9 9 9 8 8 8 7 7 6 4 3 4 5 6
9 7 6 5 4 5 4 5 6 7 9 10 10 10 10 10 10 9 9 9 9 10 9 9 10 10 9 9 10 10 10 10 10 10 10 9 9 9 9 8 8 8 7 6 5 4 4 5 6
10 9 7 6 6 6 6 6 6 7 8 9 9 10 10 10 10 10 9 8 9 10 10 10 9 9 9 9 10 10 10 11 10 10 9 9 9 8 8 8 8 7 6 5 4 4 4 6 6
11 9 8 8 8 7 8 7 7 7 8 9 10 11 10 10 11 11 9 8 9 9 9 10 10 9 9 9 10 10 10 11 10 9 8 8 8 8 7 7 7 7 5 4 4 4 4 5 6
13 11 10 9 9 9 9 9 9 7 9 9 11 12 11 10 10 10 8 8 8 9 9 9 9 9 10 10 10 10 10 11 11 9 9 9 9 8 8 8 8 6 5 4 3 3 3 4 5
14 12 11 10 10 9 10 10 10 9 9 10 11 11 12 11 10 9 8 8 8 8 9 9 9 10 10 10 10 10 10 11 10 10 9 9 9 9 8 8 8 6 5 4 4 4 3 4 5
16 14 13 11 10 10 11 12 11 10 9 9 11 11 11 10 10 10 9 10 10 8 8 9 10 10 9 9 10 10 10 10 9 9 9 8 8 8 9 8 7 5 5 4 4 4 4 4 5
16 15 14 12 11 11 12 13 12 11 10 10 10 10 10 10 10 10 9 10 10 10 9 9 10 10 9 9 10 10 10 10 9 9 9 9 9 8 9 8 7 6 5 5 4 4 4 4 5
17 16 14 13 12 12 13 14 13 12 11 10 10 10 10 10 11 11 10 9 10 10 9 9 10 10 9 10 10 10 10 10 9 9 9 10 9 8 9 8 7 6 6 6 5 5 5 5 5
18 17 16 14 14 14 15 14 13 12 12 10 10 9 9 10 11 11 10 10 10 10 10 10 10 10 9 9 10 10 11 10 9 9 10 10 9 9 9 7 7 7 7 6 6 6 5 5 5
18 18 16 15 14 16 16 15 14 13 13 12 11 11 11 11 11 12 11 11 11 11 11 11 11 10 9 9 10 10 10 10 9 10 10 10 10 9 8 8 8 8 7 7 6 6 5 5 5
20 19 17 15 15 16 16 16 16 14 14 13 12 12 12 12 11 12 12 12 12 11 11 11 11 10 9 10 10 10 10 10 9 10 10 10 10 10 9 8 8 8 8 7 6 6 6 6 6
20 20 18 17 16 17 17 16 15 14 13 13 12 12 12 11 11 11 12 12 12 11 10 10 10 9 9 10 10 10 10 10 10 10 10 11 10 10 9 9 9 8 8 7 7 6 7 7 7
21 20 19 19 17 18 18 17 15 15 15 14 14 14 13 12 11 11 12 13 13 11 10 9 10 10 10 10 10 10 10 10 11 11 11 11 10 10 9 9 9 8 8 8 7 7 7 7 8
21 19 18 19 19 19 20 19 17 17 16 15 15 15 14 13 13 12 12 13 12 11 10 10 10 11 11 10 10 10 10 10 11 11 11 11 11 11 10 9 9 9 9 8 8 8 8 8 8
20 19 19 20 21 21 21 22 20 19 18 16 16 15 14 13 13 13 14 14 13 12 11 11 11 12 12 11 10 11 10 10 11 11 11 11 11 11 10 10 9 10 9 9 9 9 9 9 9
20 20 20 20 22 22 20 22 20 20 19 17 16 15 14 14 14 14 14 13 13 13 12 12 12 12 12 11 11 11 10 10 11 12 12 12 11 11 11 10 10 10 9 9 9 9 9 10 10
22 22 21 22 22 22 20 22 21 18 17 17 15 15 15 15 15 15 15 15 15 14 13 12 12 11 12 12 12 12 11 12 12 12 12 12 11 11 11 11 11 11 10 11 10 10 10 10 10
22 23 23 23 22 20 20 22 20 17 16 15 15 16 16 16 16 16 16 17 16 14 14 13 12 11 12 13 13 12 12 12 12 13 12 12 12 12 12 11 11 11 11 11 11 11 11 11 11
23 23 23 23 22 22 21 20 18 17 17 16 16 17 17 16 16 17 16 16 15 14 14 13 13 12 13 13 13 13 13 13 13 13 13 14 13 12 12 12 11 12 12 12 12 12 13 13 12
24 23 23 24 24 24 22 21 19 19 18 18 18 17 17 17 18 17 15 15 15 14 14 14 13 13 13 13 14 14 14 14 14 14 14 15 14 14 13 12 12 12 12 12 12 13 13 13 13
24 24 24 24 25 24 24 22 20 20 19 19 19 19 18 18 19 18 16 15 15 15 15 14 14 13 14 14 15 15 15 15 15 15 15 15 14 14 13 13 13 13 13 13 13 13 14 13 13
24 25 25 26 26 26 26 24 20 19 19 20 20 20 20 19 20 18 17 16 16 16 16 15 14 15 15 16 16 16 16 16 16 16 16 15 14 15 15 14 14 14 14 14 13 13 13 13 13
Wind_Direction
141 137 127 114 95 65 47 44 42 46 40 28 19 16 17 16 14 14 14 14 15 18 16 13 10 9 8 4 359 359 360 358 358 353 347 344 340 330 320 316 309 305 304 303 290 283 275 258 244
147 145 135 117 91 53 41 27 27 36 34 25 18 15 18 16 12 11 10 14 16 16 14 11 10 10 9 8 4 2 2 359 358 354 350 348 344 337 327 319 315 312 306 305 294 281 274 259 242
156 150 149 125 95 56 35 24 21 25 23 17 16 13 14 18 16 10 9 13 17 16 13 10 9 10 10 8 5 3 4 2 358 352 348 346 344 343 339 331 321 315 307 302 296 289 280 265 244
165 160 162 146 88 48 19 18 14 14 8 3 15 15 12 15 16 12 8 9 13 9 7 6 7 9 8 7 7 6 2 360 355 352 346 343 342 343 341 333 327 320 311 306 301 300 300 269 231
181 170 168 156 107 55 3 4 1 360 356 354 4 12 11 9 11 9 5 6 3 3 1 1 4 6 4 4 3 3 2 359 356 353 349 345 344 341 338 334 326 322 317 309 304 301 293 247 212
182 175 170 156 135 53 353 355 356 349 349 352 358 5 5 6 7 7 3 2 3 360 358 358 3 4 1 1 1 1 359 357 356 353 348 346 342 339 337 330 322 313 311 308 300 286 264 232 216
190 194 160 158 147 121 14 359 349 342 338 343 347 355 358 358 1 1 1 2 5 359 355 355 360 1 2 2 360 359 359 356 354 354 347 345 343 338 337 330 321 313 308 301 290 284 256 231 221
195 199 172 178 205 308 340 339 329 320 326 332 337 343 348 351 352 352 355 1 2 359 357 356 358 358 358 358 358 357 355 354 353 352 346 342 342 340 337 333 321 311 304 294 282 272 245 230 224
199 199 191 203 244 280 298 311 317 315 316 322 325 331 340 344 347 348 353 356 354 355 356 356 357 356 357 358 358 356 355 351 350 348 344 342 343 338 335 334 325 314 304 290 275 260 251 233 224
203 202 203 228 254 271 281 290 309 305 307 310 314 321 330 336 339 341 346 347 348 352 357 360 359 356 354 355 357 354 352 351 347 345 346 345 345 340 335 335 332 324 312 291 274 255 252 240 229
213 206 210 234 249 258 270 280 290 299 305 306 309 316 324 327 330 335 340 343 345 348 356 2 4 2 359 357 357 354 351 351 348 346 348 349 349 351 345 340 337 333 320 298 285 270 260 247 237
217 211 214 227 245 259 271 281 290 298 305 305 306 311 317 315 315 325 332 340 343 345 350 356 359 359 357 357 356 353 351 350 350 349 349 352 354 356 350 345 340 337 327 308 292 284 264 256 245
219 219 222 230 243 253 268 276 283 288 298 299 301 306 311 312 315 322 329 332 336 337 343 349 353 354 354 354 354 352 351 350 352 350 348 350 351 355 353 350 346 342 335 320 308 294 271 257 251
221 222 224 229 241 252 266 275 279 284 290 295 300 306 304 306 313 314 320 323 327 333 336 340 345 348 350 354 354 350 349 349 350 348 349 348 348 350 352 350 349 350 346 332 315 300 281 266 254
226 226 227 232 239 249 265 274 280 279 283 287 295 302 303 303 306 310 319 322 326 331 333 336 337 341 346 350 349 349 348 347 347 346 346 348 348 350 351 351 351 351 346 335 322 306 286 274 256
228 232 234 237 244 252 258 264 269 272 277 284 290 298 301 301 303 306 310 317 322 324 330 333 333 337 343 346 346 346 345 345 344 346 347 347 346 345 347 348 351 348 341 334 318 302 288 275 259
231 235 239 242 245 251 255 259 267 270 273 279 285 293 295 297 299 302 304 310 318 318 324 330 330 329 335 340 343 345 344 344 341 342 343 342 340 340 338 341 346 344 338 330 316 299 288 279 273
236 239 241 248 252 253 252 258 263 271 271 276 280 289 292 293 298 299 300 303 308 307 311 319 322 324 331 337 337 342 343 342 341 339 339 338 335 333 332 334 337 335 329 325 318 308 296 283 279
236 238 239 240 246 251 252 253 255 265 271 274 280 287 290 290 295 298 301 302 304 303 306 314 316 319 325 330 333 335 337 339 339 338 337 333 330 330 330 328 330 330 326 322 320 312 296 284 278
234 237 238 237 241 247 251 251 253 258 272 274 275 283 288 292 296 297 302 304 300 300 301 307 310 314 320 323 323 328 331 333 334 334 333 332 329 326 325 322 321 322 326 322 316 311 298 287 280
234 237 237 236 238 245 251 251 252 257 266 270 272 276 281 289 293 294 297 297 295 296 295 298 301 308 314 318 317 319 324 327 327 327 328 329 327 326 324 320 314 315 317 320 314 308 301 293 286
232 235 234 234 239 242 248 252 251 254 262 265 272 273 277 283 288 293 292 293 293 291 290 293 295 300 307 312 313 315 319 323 326 325 323 324 326 326 322 322 318 315 314 315 316 310 303 296 291
233 233 234 234 239 241 244 253 253 251 255 259 265 269 274 278 281 286 289 292 285 284 285 289 291 293 301 305 308 310 316 320 324 326 325 321 321 323 321 321 315 314 311 312 312 310 303 301 296
230 231 235 237 238 240 243 249 252 248 250 253 261 266 273 277 280 284 289 293 287 281 282 283 286 287 293 296 298 303 309 315 320 323 324 320 320 321 320 316 313 312 309 307 309 310 306 301 296
231 231 234 235 237 239 238 244 249 245 243 247 256 265 271 275 280 283 284 287 288 282 279 279 277 280 287 290 292 296 303 312 314 318 320 319 318 317 317 316 313 312 309 303 302 304 304 299 295
233 234 236 238 239 237 238 242 248 245 245 250 256 262 270 275 278 280 282 282 281 273 275 275 275 277 285 290 289 295 301 306 309 312 315 316 314 314 316 315 312 313 310 304 300 299 299 297 293
233 235 237 239 240 238 239 243 244 244 246 251 254 260 268 271 270 272 276 280 275 271 271 274 273 272 277 283 288 292 296 299 302 304 307 310 312 311 312 313 310 311 310 308 306 301 299 295 291
233 233 233 234 236 239 240 239 239 242 246 250 252 259 267 269 273 274 275 274 271 268 266 269 271 273 276 285 289 292 294 298 301 301 302 303 304 305 305 307 308 309 313 312 306 302 299 298 294
230 231 235 236 237 239 241 240 241 242 243 247 251 259 265 268 272 273 276 272 270 267 267 267 270 275 281 286 288 291 294 297 298 296 297 299 299 301 303 306 305 305 305 307 307 303 299 297 295
232 234 235 236 237 239 241 242 242 242 244 246 248 256 262 267 270 271 272 271 268 268 270 270 278 279 282 285 288 289 291 294 297 296 295 294 295 295 296 299 301 301 303 303 303 303 303 299 295
Height
5913 5913 5913 5914 5914 5913 5911 5912 5910 5911 5911 5910 5909 5909 5908 5908 5907 5908 5904 5902 5900 5899 5898 5897 5896 5896 5894 5893 5892 5891 5890 5889 5888 5887 5886 5885 5884 5883 5882 5881 5881 5880 5879 5878 5878 5878 5878 5878 5878
5913 5913 5914 5914 5913 5912 5912 5912 5911 5911 5911 5910 5910 5910 5909 5908 5906 5905 5903 5902 5901 5900 5899 5898 5897 5896 5895 5894 5893 5891 5890 5889 5888 5887 5886 5885 5884 5883 5882 5881 5880 5879 5878 5877 5877 5876 5876 5876 5876
5913 5913 5914 5914 5913 5913 5913 5912 5912 5911 5911 5911 5911 5910 5909 5908 5906 5905 5904 5902 5901 5900 5899 5898 5897 5896 5895 5894 5893 5892 5890 5889 5888 5887 5886 5885 5884 5883 5882 5881 5879 5878 5877 5877 5876 5875 5874 5873 5872
5913 5914 5914 5914 5913 5912 5912 5912 5911 5911 5911 5911 5911 5910 5909 5908 5906 5905 5904 5903 5902 5901 5900 5899 5898 5896 5895 5894 5893 5892 5890 5889 5888 5887 5886 5885 5883 5882 5881 5880 5878 5877 5877 5876 5875 5874 5872 5868 5868
5912 5913 5913 5912 5912 5912 5912 5912 5912 5912 5911 5910 5911 5910 5909 5908 5907 5905 5904 5903 5902 5901 5900 5899 5898 5896 5895 5894 5893 5892 5890 5889 5888 5886 5885 5884 5882 5881 5880 5879 5877 5876 5875 5875 5874 5873 5871 5869 5869
5913 5913 5913 5912 5912 5912 5912 5911 5911 5912 5911 5911 5910 5910 5909 5908 5907 5905 5904 5903 5902 5901 5900 5899 5898 5896 5895 5894 5892 5891 5890 5889 5887 5886 5884 5883 5881 5880 5879 5877 5876 5875 5874 5873 5873 5872 5872 5871 5872
5913 5913 5912 5913 5912 5912 5912 5912 5912 5911 5911 5911 5910 5910 5909 5908 5906 5905 5904 5903 5902 5901 5900 5898 5897 5896 5895 5893 5892 5891 5889 5888 5886 5885 5883 5882 5880 5879 5877 5876 5875 5874 5873 5872 5871 5871 5871 5871 5871
5911 5913 5912 5912 5912 5912 5911 5912 5912 5911 5911 5910 5910 5909 5908 5907 5906 5905 5904 5903 5902 5901 5899 5898 5897 5896 5894 5893 5891 5890 5888 5887 5886 5884 5882 5881 5879 5878 5876 5875 5873 5871 5870 5870 5870 5870 5869 5870 5871
5910 5912 5911 5911 5911 5911 5911 5911 5911 5910 5910 5909 5908 5908 5908 5907 5906 5905 5904 5902 5901 5901 5899 5898 5896 5895 5894 5893 5891 5890 5888 5887 5885 5883 5882 5880 5878 5877 5875 5873 5871 5868 5867 5867 5868 5869 5869 5869 5870
5908 5910 5910 5910 5910 5910 5910 5910 5909 5909 5909 5908 5907 5907 5907 5907 5905 5904 5903 5902 5901 5900 5899 5898 5896 5895 5894 5892 5891 5889 5887 5886 5884 5883 5881 5879 5878 5876 5874 5872 5869 5865 5864 5865 5866 5867 5868 5868 5868
5907 5908 5908 5908 5909 5909 5909 5909 5908 5908 5907 5907 5906 5906 5906 5905 5904 5903 5903 5901 5900 5900 5898 5897 5896 5894 5893 5892 5890 5888 5887 5885 5884 5882 5880 5878 5877 5875 5873 5871 5868 5865 5864 5864 5865 5866 5866 5867 5867
5905 5906 5906 5907 5907 5907 5907 5907 5907 5907 5906 5906 5905 5904 5904 5903 5903 5902 5901 5901 5900 5899 5897 5896 5895 5894 5893 5891 5889 5887 5886 5884 5882 5881 5879 5877 5876 5874 5872 5870 5868 5866 5865 5865 5865 5865 5865 5865 5865
5902 5903 5904 5904 5905 5905 5906 5905 5906 5905 5905 5905 5904 5903 5902 5902 5901 5901 5900 5900 5899 5898 5897 5896 5894 5893 5892 5890 5888 5887 5885 5883 5881 5880 5878 5877 5875 5873 5872 5870 5868 5867 5865 5865 5864 5864 5864 5864 5864
5899 5900 5901 5902 5902 5903 5903 5903 5904 5904 5903 5903 5902 5901 5901 5900 5900 5900 5899 5899 5898 5897 5896 5894 5893 5892 5891 5889 5888 5886 5884 5883 5881 5879 5878 5876 5874 5872 5871 5869 5867 5866 5865 5864 5863 5863 5863 5863 5863
5896 5898 5899 5900 5900 5900 5901 5902 5902 5902 5901 5901 5901 5900 5899 5899 5898 5898 5898 5898 5897 5896 5895 5893 5892 5891 5890 5888 5887 5885 5883 5882 5880 5878 5877 5875 5873 5872 5870 5868 5866 5865 5864 5863 5862 5862 5862 5862 5862
5894 5895 5897 5898 5897 5898 5900 5899 5900 5899 5899 5899 5899 5898 5898 5897 5897 5897 5896 5896 5895 5894 5893 5892 5891 5890 5889 5887 5886 5884 5882 5881 5879 5877 5876 5874 5872 5871 5869 5867 5866 5864 5863 5862 5861 5861 5861 5860 5860
5890 5891 5893 5894 5894 5894 5895 5895 5897 5896 5896 5896 5896 5896 5896 5896 5896 5895 5895 5894 5894 5893 5892 5890 5890 5889 5888 5886 5884 5883 5881 5880 5878 5876 5875 5873 5871 5869 5868 5866 5865 5863 5862 5861 5860 5859 5859 5859 5859
5887 5888 5889 5890 5891 5891 5891 5892 5893 5893 5893 5893 5894 5894 5894 5894 5893 5893 5892 5892 5892 5891 5890 5890 5889 5888 5886 5885 5884 5882 5880 5878 5877 5875 5873 5871 5870 5868 5866 5865 5863 5862 5861 5860 5859 5858 5858 5857 5857
5882 5883 5884 5886 5886 5886 5886 5888 5889 5889 5890 5890 5891 5891 5891 5891 5891 5891 5890 5890 5890 5889 5889 5888 5888 5886 5885 5884 5882 5881 5879 5877 5875 5874 5872 5870 5868 5867 5865 5863 5862 5860 5859 5858 5857 5857 5856 5856 5856
5877 5878 5880 5881 5882 5882 5882 5884 5885 5886 5886 5887 5887 5888 5888 5889 5889 5888 5888 5888 5888 5887 5887 5886 5885 5885 5884 5882 5881 5880 5878 5876 5874 5872 5870 5868 5867 5865 5863 5862 5860 5859 5858 5857 5856 5855 5854 5854 5853
5872 5874 5876 5877 5878 5878 5879 5880 5881 5882 5883 5884 5884 5885 5885 5886 5886 5886 5886 5885 5885 5885 5884 5884 5883 5882 5882 5881 5879 5878 5876 5874 5873 5871 5869 5867 5865 5863 5862 5860 5859 5857 5856 5855 5854 5853 5852 5852 5851
5868 5870 5872 5872 5873 5874 5875 5875 5877 5878 5879 5880 5881 5881 5882 5883 5883 5884 5884 5883 5883 5882 5881 5881 5880 5880 5879 5878 5877 5876 5874 5873 5871 5869 5867 5865 5863 5861 5859 5858 5857 5856 5854 5853 5852 5851 5850 5849 5849
5864 5866 5867 5868 5868 5869 5870 5870 5873 5874 5875 5877 5877 5878 5878 5879 5880 5880 5881 5880 5880 5879 5879 5878 5877 5877 5876 5875 5874 5873 5872 5870 5869 5867 5865 5863 5861 5859 5857 5856 5854 5853 5852 5851 5850 5849 5848 5847 5846
5859 5860 5861 5862 5863 5865 5866 5866 5867 5869 5871 5872 5873 5874 5875 5875 5876 5877 5877 5877 5876 5876 5875 5875 5874 5874 5873 5872 5872 5870 5869 5868 5866 5864 5862 5861 5859 5857 5855 5854 5852 5851 5850 5848 5847 5846 5845 5844 5843
5853 5855 5856 5856 5857 5859 5862 5861 5863 5863 5866 5867 5869 5870 5871 5872 5872 5873 5873 5873 5873 5873 5872 5871 5870 5870 5870 5869 5868 5867 5866 5865 5863 5862 5860 5858 5856 5855 5853 5851 5850 5848 5847 5846 5845 5843 5842 5841 5840
5847 5849 5851 5852 5853 5855 5856 5856 5859 5860 5862 5863 5864 5865 5866 5867 5868 5869 5869 5869 5869 5868 5868 5868 5867 5866 5866 5866 5865 5864 5863 5862 5860 5859 5857 5856 5854 5852 5850 5848 5847 5845 5844 5842 5841 5840 5839 5838 5837
5842 5843 5846 5848 5849 5850 5851 5853 5854 5856 5857 5858 5859 5861 5862 5862 5863 5864 5864 5864 5865 5865 5865 5864 5863 5863 5862 5862 5862 5861 5860 5859 5857 5856 5854 5853 5851 5849 5847 5845 5844 5842 5841 5839 5838 5837 5836 5835 5834
5837 5839 5841 5842 5843 5844 5846 5848 5850 5851 5853 5854 5855 5856 5857 5857 5858 5859 5859 5860 5861 5861 5861 5860 5859 5859 5858 5858 5858 5857 5856 5854 5853 5851 5850 5849 5847 5845 5844 5842 5841 5839 5838 5836 5835 5833 5832 5831 5830
5831 5833 5835 5836 5838 5840 5841 5845 5845 5847 5848 5849 5850 5851 5851 5853 5854 5854 5855 5855 5856 5856 5856 5856 5855 5855 5854 5854 5854 5853 5851 5850 5848 5847 5846 5844 5843 5841 5840 5839 5838 5836 5835 5833 5832 5830 5829 5828 5827
5825 5827 5829 5831 5833 5834 5836 5841 5841 5842 5843 5844 5845 5845 5846 5848 5849 5849 5849 5850 5851 5851 5851 5851 5851 5851 5851 5850 5849 5848 5847 5845 5844 5842 5841 5840 5839 5837 5836 5835 5834 5833 5831 5830 5829 5827 5825 5824 5823